Temp
-6 -6 -6 -5 -5 -5 -5 -6 -6 -6 -6 -7 -7 -7 -7 -6 -6 -7 -7 -6 -6 -6 -6 -6 -6 -6 -6 -6 -6 -6 -6 -6 -6 -6 -6 -7 -6 -7 -7 -7 -7 -7 -7 -7
-6 -6 -6 -6 -6 -6 -6 -6 -6 -6 -6 -6 -7 -8 -7 -7 -7 -7 -7 -7 -6 -6 -6 -6 -6 -6 -6 -6 -6 -6 -6 -6 -6 -6 -6 -6 -6 -6 -7 -7 -7 -8 -8 -7
-6 -6 -6 -6 -6 -6 -6 -6 -6 -7 -6 -6 -5 -6 -7 -7 -7 -8 -8 -7 -7 -6 -6 -6 -6 -6 -6 -6 -6 -6 -7 -6 -6 -6 -7 -6 -7 -7 -7 -7 -7 -7 -7 -7
-6 -6 -6 -6 -7 -7 -7 -7 -7 -6 -6 -6 -6 -6 -6 -7 -7 -7 -8 -8 -7 -7 -6 -6 -6 -7 -6 -6 -6 -6 -7 -7 -7 -7 -7 -7 -7 -7 -7 -7 -7 -8 -7 -7
-6 -6 -6 -6 -7 -6 -7 -7 -6 -6 -6 -6 -7 -7 -7 -7 -7 -7 -8 -8 -8 -7 -7 -6 -6 -6 -6 -6 -6 -6 -7 -7 -7 -8 -7 -7 -7 -7 -7 -7 -7 -8 -8 -8
-6 -6 -6 -7 -7 -6 -7 -7 -7 -7 -7 -6 -7 -7 -8 -7 -6 -7 -6 -8 -8 -8 -7 -6 -5 -6 -6 -6 -6 -6 -6 -7 -8 -8 -8 -8 -8 -8 -8 -7 -7 -8 -8 -8
-5 -5 -6 -7 -7 -7 -7 -7 -7 -7 -7 -7 -7 -6 -8 -8 -7 -7 -7 -8 -8 -8 -7 -7 -6 -5 -6 -7 -7 -6 -6 -6 -7 -8 -8 -8 -8 -8 -8 -8 -8 -8 -7 -8
-6 -7 -6 -7 -7 -8 -8 -8 -8 -8 -8 -8 -7 -6 -6 -8 -7 -7 -8 -8 -9 -8 -8 -7 -6 -6 -6 -5 -6 -7 -6 -7 -7 -7 -7 -7 -8 -8 -8 -8 -8 -8 -8 -7
-7 -7 -7 -7 -7 -8 -8 -8 -9 -9 -8 -8 -8 -7 -7 -7 -8 -8 -8 -8 -8 -7 -7 -7 -6 -6 -6 -6 -6 -7 -7 -7 -7 -7 -7 -7 -7 -7 -7 -8 -8 -8 -8 -8
-8 -8 -8 -8 -8 -8 -8 -8 -9 -10 -9 -9 -8 -8 -7 -7 -8 -8 -8 -8 -8 -7 -7 -7 -7 -7 -7 -6 -7 -7 -7 -7 -6 -7 -7 -7 -7 -7 -7 -7 -7 -7 -7 -7
-9 -9 -10 -9 -8 -9 -9 -9 -9 -10 -10 -9 -8 -7 -8 -8 -8 -8 -9 -8 -8 -8 -8 -7 -6 -7 -7 -7 -7 -7 -7 -7 -8 -8 -7 -8 -7 -7 -8 -8 -7 -7 -7 -7
-10 -9 -10 -10 -10 -10 -9 -9 -9 -9 -9 -9 -9 -7 -10 -9 -9 -8 -9 -9 -8 -8 -8 -7 -7 -6 -7 -8 -8 -7 -7 -7 -8 -8 -8 -8 -8 -7 -7 -7 -7 -7 -7 -7
-10 -10 -10 -10 -11 -10 -10 -10 -9 -10 -10 -9 -9 -7 -9 -10 -9 -8 -8 -9 -9 -8 -8 -8 -8 -8 -8 -8 -8 -8 -7 -8 -8 -7 -8 -8 -8 -8 -7 -7 -7 -7 -8 -8
-10 -10 -10 -10 -10 -10 -11 -11 -10 -10 -10 -10 -10 -9 -9 -10 -9 -9 -8 -9 -9 -9 -8 -8 -8 -9 -9 -9 -9 -8 -8 -8 -8 -8 -8 -8 -8 -8 -7 -7 -7 -8 -8 -8
-11 -11 -11 -11 -10 -10 -11 -11 -11 -11 -11 -11 -10 -10 -10 -10 -10 -10 -9 -9 -9 -9 -9 -8 -8 -9 -9 -9 -8 -8 -8 -8 -8 -8 -8 -8 -8 -8 -7 -8 -8 -8 -8 -8
-11 -11 -11 -11 -11 -10 -9 -10 -11 -11 -11 -11 -11 -10 -10 -10 -10 -10 -10 -10 -9 -9 -9 -9 -9 -9 -8 -8 -8 -9 -8 -8 -8 -8 -9 -8 -8 -8 -8 -8 -8 -8 -8 -7
-10 -11 -11 -10 -10 -10 -9 -9 -9 -10 -11 -11 -11 -11 -11 -10 -10 -10 -10 -10 -10 -10 -9 -9 -9 -9 -9 -9 -9 -9 -9 -8 -8 -8 -8 -8 -8 -8 -8 -8 -7 -8 -7 -7
-10 -11 -11 -10 -10 -9 -9 -10 -10 -9 -10 -10 -11 -11 -11 -11 -10 -10 -10 -10 -10 -10 -10 -10 -9 -9 -9 -9 -10 -9 -9 -9 -8 -9 -10 -8 -8 -8 -8 -7 -7 -8 -8 -7
-11 -11 -11 -11 -11 -10 -10 -11 -11 -10 -10 -10 -10 -11 -11 -11 -11 -11 -10 -10 -11 -11 -10 -10 -10 -10 -10 -9 -9 -9 -9 -9 -9 -9 -9 -9 -9 -8 -8 -8 -8 -8 -8 -7
-13 -13 -13 -12 -11 -10 -10 -12 -12 -11 -10 -10 -11 -11 -11 -11 -11 -11 -11 -10 -11 -11 -10 -10 -10 -10 -10 -10 -10 -9 -9 -9 -9 -8 -9 -9 -10 -9 -8 -8 -9 -8 -8 -8
-13 -14 -13 -13 -12 -11 -11 -11 -13 -12 -11 -11 -11 -12 -12 -12 -11 -11 -11 -11 -10 -11 -11 -10 -10 -10 -10 -10 -10 -9 -9 -8 -8 -9 -9 -9 -8 -9 -9 -9 -8 -8 -8 -8
-14 -14 -14 -14 -14 -13 -12 -13 -13 -13 -13 -13 -12 -12 -12 -12 -11 -11 -11 -11 -11 -11 -10 -10 -11 -11 -10 -10 -10 -9 -8 -8 -8 -8 -8 -8 -9 -9 -9 -8 -8 -8 -8 -7
-15 -15 -15 -15 -14 -14 -14 -14 -13 -14 -13 -13 -13 -13 -12 -12 -12 -11 -11 -11 -11 -11 -10 -11 -11 -11 -10 -10 -10 -9 -8 -8 -8 -8 -8 -9 -10 -9 -9 -9 -8 -8 -8 -7
-15 -15 -15 -15 -15 -15 -14 -14 -14 -14 -14 -14 -14 -13 -13 -13 -13 -12 -12 -12 -11 -11 -10 -11 -10 -10 -10 -10 -10 -9 -8 -9 -9 -9 -9 -9 -9 -10 -9 -8 -8 -8 -8 -7
-15 -15 -15 -15 -15 -15 -15 -15 -14 -14 -14 -14 -14 -13 -13 -13 -13 -13 -12 -12 -12 -12 -12 -11 -10 -10 -10 -10 -10 -10 -9 -9 -9 -9 -10 -10 -9 -9 -8 -8 -8 -8 -7 -7
-15 -15 -15 -14 -15 -15 -15 -15 -15 -15 -15 -14 -14 -14 -13 -13 -13 -13 -13 -12 -12 -12 -12 -12 -11 -10 -10 -10 -10 -10 -9 -9 -9 -10 -10 -9 -8 -8 -8 -8 -8 -8 -7 -7
Height
5890 5891 5891 5893 5893 5893 5893 5893 5893 5893 5893 5893 5894 5894 5893 5892 5891 5890 5888 5888 5887 5888 5888 5888 5888 5888 5888 5889 5889 5890 5892 5894 5897 5898 5900 5901 5902 5904 5906 5910 5913 5916 5918 5922
5888 5887 5887 5889 5890 5891 5891 5891 5890 5891 5891 5891 5891 5893 5892 5892 5890 5889 5888 5887 5885 5886 5887 5887 5887 5887 5888 5889 5889 5889 5891 5892 5895 5896 5898 5900 5901 5903 5905 5908 5911 5914 5916 5919
5883 5882 5883 5885 5887 5888 5889 5889 5887 5887 5888 5889 5889 5889 5890 5891 5890 5888 5887 5887 5885 5884 5885 5885 5886 5886 5887 5888 5889 5889 5889 5891 5892 5894 5895 5898 5899 5902 5903 5904 5907 5911 5914 5918
5879 5879 5879 5881 5883 5885 5886 5885 5883 5885 5886 5887 5888 5889 5887 5887 5888 5887 5887 5887 5885 5884 5884 5884 5885 5885 5886 5886 5887 5887 5888 5889 5890 5892 5894 5895 5898 5900 5900 5902 5905 5909 5912 5915
5874 5873 5874 5877 5879 5879 5882 5879 5881 5882 5883 5884 5885 5886 5884 5884 5884 5885 5885 5885 5884 5882 5881 5883 5883 5884 5885 5886 5886 5886 5887 5888 5889 5890 5892 5895 5896 5899 5901 5903 5904 5908 5911 5913
5867 5869 5871 5873 5873 5875 5876 5876 5877 5878 5879 5882 5881 5880 5883 5882 5881 5881 5881 5882 5883 5882 5880 5880 5881 5883 5883 5885 5885 5885 5885 5887 5888 5889 5891 5893 5896 5898 5900 5902 5904 5907 5910 5912
5861 5863 5865 5866 5868 5869 5872 5873 5873 5873 5874 5877 5878 5875 5880 5878 5878 5878 5878 5878 5879 5880 5879 5880 5879 5880 5881 5881 5884 5885 5885 5886 5888 5888 5889 5891 5894 5897 5899 5901 5903 5905 5908 5910
5858 5859 5860 5862 5862 5864 5865 5868 5868 5868 5869 5870 5872 5873 5875 5876 5875 5876 5876 5875 5875 5876 5876 5876 5877 5877 5878 5879 5881 5883 5884 5884 5886 5888 5888 5890 5893 5895 5897 5899 5902 5903 5905 5907
5854 5853 5855 5856 5855 5857 5860 5861 5864 5863 5864 5864 5866 5870 5870 5870 5871 5872 5873 5872 5871 5872 5872 5872 5873 5874 5874 5875 5878 5880 5882 5883 5884 5886 5887 5887 5890 5892 5895 5897 5900 5902 5904 5906
5849 5849 5850 5850 5852 5852 5852 5856 5858 5858 5859 5859 5861 5864 5865 5864 5866 5867 5869 5869 5868 5868 5869 5869 5870 5870 5871 5872 5874 5877 5880 5881 5882 5884 5885 5885 5887 5889 5892 5895 5897 5899 5901 5903
5844 5845 5847 5845 5848 5848 5848 5849 5852 5854 5854 5854 5855 5860 5860 5860 5861 5861 5863 5864 5864 5864 5864 5865 5866 5867 5868 5870 5872 5873 5874 5876 5880 5880 5880 5882 5883 5885 5888 5891 5894 5896 5897 5899
5837 5838 5842 5842 5842 5842 5843 5844 5846 5846 5848 5849 5850 5857 5855 5855 5856 5858 5859 5860 5862 5861 5862 5862 5862 5863 5866 5867 5869 5870 5871 5873 5875 5876 5877 5879 5880 5881 5882 5886 5889 5892 5894 5896
5829 5829 5833 5837 5838 5836 5836 5839 5841 5842 5842 5843 5846 5853 5852 5851 5853 5854 5856 5857 5859 5858 5860 5861 5860 5861 5863 5865 5867 5868 5869 5870 5871 5871 5873 5876 5878 5879 5877 5878 5880 5884 5888 5890
5819 5818 5820 5826 5829 5829 5830 5832 5834 5835 5834 5838 5839 5843 5847 5847 5847 5850 5853 5854 5856 5857 5858 5858 5859 5860 5860 5862 5864 5864 5864 5866 5866 5867 5870 5872 5872 5872 5875 5877 5880 5882 5882 5883
5808 5807 5808 5810 5815 5818 5821 5823 5825 5826 5829 5830 5834 5835 5840 5843 5843 5845 5848 5850 5852 5854 5855 5856 5857 5857 5858 5858 5858 5859 5860 5861 5861 5861 5866 5866 5867 5870 5875 5873 5877 5878 5880 5879
5797 5795 5796 5797 5801 5805 5807 5813 5814 5817 5820 5822 5826 5829 5833 5836 5838 5840 5843 5845 5847 5849 5852 5853 5854 5855 5854 5854 5853 5852 5854 5854 5856 5857 5858 5859 5861 5867 5869 5871 5872 5874 5876 5873
5784 5785 5785 5784 5789 5791 5794 5799 5804 5809 5812 5815 5816 5823 5824 5828 5830 5834 5836 5839 5841 5844 5845 5848 5849 5850 5850 5850 5849 5848 5847 5847 5848 5848 5850 5854 5857 5860 5862 5864 5867 5869 5868 5867
5769 5771 5772 5773 5776 5777 5782 5787 5793 5795 5800 5805 5807 5812 5815 5819 5823 5826 5829 5832 5836 5838 5839 5840 5843 5844 5844 5843 5843 5842 5842 5841 5839 5840 5842 5847 5851 5853 5855 5858 5860 5860 5862 5864
5756 5758 5759 5760 5762 5765 5769 5773 5777 5783 5787 5790 5795 5801 5806 5810 5814 5820 5821 5824 5827 5829 5831 5833 5834 5835 5835 5835 5835 5835 5834 5834 5833 5830 5837 5842 5844 5845 5849 5850 5852 5856 5857 5859
5741 5744 5745 5746 5747 5748 5754 5764 5763 5768 5774 5779 5784 5788 5795 5800 5804 5812 5813 5815 5818 5821 5822 5824 5826 5827 5826 5825 5826 5825 5825 5825 5828 5830 5831 5835 5837 5840 5844 5846 5848 5851 5853 5853
5729 5730 5731 5732 5732 5736 5741 5744 5752 5754 5764 5768 5772 5777 5783 5788 5795 5800 5804 5807 5810 5812 5814 5816 5816 5818 5817 5817 5816 5816 5816 5816 5815 5817 5820 5822 5828 5833 5836 5840 5842 5843 5844 5845
5715 5716 5718 5719 5720 5723 5729 5731 5737 5740 5745 5753 5760 5764 5770 5775 5782 5789 5794 5797 5801 5805 5808 5808 5808 5809 5809 5808 5807 5808 5808 5806 5801 5802 5802 5791 5816 5826 5829 5833 5834 5834 5836 5836
5703 5704 5705 5707 5709 5711 5713 5716 5721 5725 5732 5738 5746 5752 5758 5763 5769 5777 5783 5786 5792 5796 5799 5800 5801 5800 5800 5801 5800 5800 5801 5799 5791 5793 5794 5801 5810 5816 5821 5824 5826 5827 5827 5827
5690 5692 5694 5696 5698 5700 5701 5704 5708 5712 5719 5725 5732 5740 5746 5751 5757 5764 5772 5776 5782 5787 5790 5793 5794 5794 5793 5793 5794 5792 5794 5794 5793 5791 5792 5797 5803 5810 5814 5819 5820 5819 5819 5818
5680 5681 5683 5684 5687 5688 5690 5692 5696 5701 5707 5714 5720 5728 5734 5741 5748 5754 5762 5768 5773 5778 5781 5783 5785 5787 5787 5787 5786 5789 5789 5791 5792 5792 5793 5797 5803 5807 5811 5813 5812 5809 5809 5810
5671 5670 5669 5673 5677 5678 5681 5682 5686 5690 5695 5702 5710 5716 5722 5730 5736 5743 5752 5758 5763 5769 5773 5776 5778 5780 5781 5782 5783 5783 5785 5785 5788 5790 5792 5797 5801 5803 5804 5804 5801 5801 5802 5802
Wind_Speed
10 10 10 9 8 9 8 9 7 9 8 7 4 8 9 9 7 6 8 10 8 6 3 4 4 4 7 8 10 13 13 12 14 16 16 14 12 19 18 21 19 18 16 14
13 15 16 12 10 10 9 11 10 11 11 9 9 6 12 12 9 7 9 11 13 11 8 5 5 5 6 8 11 12 10 10 10 11 15 17 16 18 19 19 15 15 17 16
16 21 18 16 13 12 10 12 14 15 13 11 10 10 12 14 10 11 10 10 14 15 12 10 8 8 8 8 10 12 10 10 9 9 12 15 15 17 18 19 20 20 18 17
15 19 20 18 15 14 10 16 20 17 16 14 11 7 13 14 13 14 12 11 12 14 14 12 11 10 11 10 10 11 12 11 9 10 12 13 20 19 20 17 20 23 21 18
15 19 19 16 16 17 12 22 19 18 16 12 13 9 15 12 12 15 17 14 14 14 13 12 12 11 10 12 10 9 9 10 12 12 11 12 15 16 14 14 18 24 20 16
18 18 17 16 18 17 18 21 19 19 17 11 14 16 8 15 14 14 15 14 13 15 15 13 11 11 10 11 13 11 10 10 11 14 13 12 15 16 15 15 18 20 20 19
25 22 20 18 18 18 17 19 22 23 20 15 14 20 10 16 15 13 12 10 13 15 16 17 15 12 15 13 14 13 11 11 11 13 16 16 15 17 18 18 18 18 21 24
23 22 21 19 19 18 18 20 23 24 23 24 16 13 13 17 21 13 13 9 13 15 17 15 14 14 14 15 14 16 13 12 12 13 14 16 17 19 19 18 20 21 20 20
18 22 21 22 25 25 22 23 22 26 24 23 21 15 15 16 18 17 15 11 14 18 21 16 13 8 9 11 13 16 16 14 13 12 14 15 15 17 19 20 20 21 21 22
16 19 20 21 22 25 28 27 26 26 27 27 25 17 16 16 16 19 17 14 15 17 19 18 17 12 12 11 12 15 16 15 14 14 15 14 15 15 15 16 18 18 19 21
20 19 18 20 16 22 27 29 28 28 30 32 29 16 15 15 18 22 19 16 17 19 23 25 22 17 12 13 13 15 17 18 15 16 19 19 16 15 14 16 18 17 15 15
25 26 21 22 21 22 25 29 30 33 34 32 30 9 10 14 18 23 21 16 18 20 20 20 22 19 11 12 13 13 13 17 19 19 19 20 20 18 16 15 14 15 14 13
29 31 28 25 27 29 28 25 27 31 35 34 31 12 11 15 17 24 24 21 18 19 18 14 14 16 15 12 10 13 18 20 22 24 22 22 20 20 19 21 19 16 15 15
35 37 36 30 28 32 34 31 30 33 37 35 31 25 16 13 16 20 19 25 25 17 18 18 17 20 19 19 18 19 15 18 22 24 19 20 21 24 23 21 19 19 18 18
41 43 44 43 35 33 36 38 37 36 35 39 32 26 18 16 15 20 22 21 28 22 18 16 16 16 17 18 17 21 22 21 22 26 21 21 25 24 17 21 21 21 23 20
43 46 47 48 46 41 37 38 40 41 40 36 32 26 21 16 15 21 24 24 24 23 22 19 20 22 14 13 19 22 23 26 21 22 24 24 24 19 13 15 18 20 19 17
43 44 47 50 47 45 44 41 39 38 38 37 38 29 29 23 16 20 16 22 24 24 22 19 21 22 20 16 16 23 24 24 23 25 27 26 23 21 17 19 21 21 18 19
45 45 48 50 49 50 47 43 42 44 40 38 40 32 29 26 22 17 19 17 25 24 24 22 21 19 20 21 22 22 23 23 26 29 31 23 22 22 23 20 24 19 19 22
46 46 47 49 51 51 49 47 46 45 47 44 41 37 32 29 28 24 19 16 17 22 26 29 27 25 21 22 26 27 24 27 25 21 24 23 25 25 22 22 20 20 18 25
43 43 44 47 49 52 49 41 47 46 47 49 47 42 38 34 31 24 26 24 22 20 21 25 25 22 22 24 25 29 29 30 31 32 30 29 31 25 26 25 22 17 20 26
41 40 42 43 47 49 47 46 40 47 44 44 49 50 46 44 39 34 31 29 27 23 22 24 23 25 26 27 28 28 29 32 39 38 38 38 35 30 29 25 21 20 24 28
39 39 40 41 44 46 44 44 41 45 46 43 43 47 49 50 44 37 35 35 32 26 23 18 20 24 26 27 24 24 26 35 38 38 45 34 33 31 26 23 21 22 27 29
35 35 36 37 37 39 41 43 42 40 40 45 44 46 46 45 44 40 35 34 34 31 30 29 24 23 25 25 23 21 19 21 25 40 44 38 28 29 24 22 23 26 28 30
34 34 34 33 33 34 38 40 40 40 38 42 43 42 39 37 38 38 34 25 32 31 30 32 29 25 27 25 22 20 18 21 20 21 20 21 24 18 20 24 26 26 28 28
33 33 33 32 31 32 35 37 39 39 35 36 40 41 39 33 35 33 35 26 26 26 27 34 32 26 23 21 20 17 18 13 15 18 17 13 14 19 23 25 25 23 26 28
29 32 35 33 30 31 31 33 33 35 36 32 33 37 41 42 42 37 39 34 31 32 32 36 37 31 30 25 22 20 19 20 16 8 12 18 20 21 23 22 20 23 25 25
Wind_Direction
262 266 256 267 282 298 295 283 262 268 274 264 241 257 272 279 273 296 300 307 302 305 234 206 219 235 226 227 217 206 211 213 213 209 212 207 211 201 198 202 211 212 198 191
260 258 265 272 274 278 280 279 268 275 282 287 287 254 277 281 274 246 265 272 291 296 290 246 225 247 258 238 226 213 211 213 214 217 215 210 207 197 201 200 193 205 191 192
260 265 272 276 275 273 268 268 259 260 275 281 287 288 268 268 267 246 250 261 278 297 300 273 250 247 255 251 226 226 228 230 229 214 210 209 193 199 210 213 211 209 192 193
257 260 266 270 273 268 258 250 255 264 277 281 288 289 284 267 264 243 251 261 266 280 291 284 251 239 251 250 244 225 222 228 225 217 214 206 203 202 206 204 201 194 191 198
239 249 257 262 263 260 231 251 266 275 277 281 291 282 267 263 258 240 234 237 254 266 276 273 258 237 238 248 244 239 222 211 212 217 213 212 202 201 204 199 199 195 197 208
250 250 252 252 255 260 249 262 268 269 274 277 284 280 243 253 262 268 259 234 247 261 269 265 267 246 227 244 238 232 234 222 211 213 213 211 205 195 200 204 199 199 201 213
260 259 253 249 248 253 254 255 265 270 272 278 256 267 227 253 254 268 266 250 249 254 257 272 270 252 230 219 239 234 227 229 226 214 213 215 217 212 206 213 217 218 218 217
264 260 258 254 250 244 240 245 253 263 270 276 264 272 280 247 259 260 249 232 251 241 237 244 258 255 252 244 228 242 229 230 227 223 218 221 216 222 223 218 222 225 229 232
266 265 264 257 253 247 246 241 249 257 264 267 271 276 275 259 249 251 244 217 239 244 239 236 223 224 244 246 229 234 238 234 239 234 227 222 222 226 227 227 231 237 240 240
269 265 269 263 262 255 246 244 243 252 257 263 266 269 281 260 229 236 233 228 246 242 242 230 221 232 247 235 234 241 230 240 244 250 243 234 228 232 240 241 240 241 242 243
270 265 256 266 275 261 252 247 242 244 247 260 270 262 274 265 231 217 212 227 241 236 239 241 227 229 234 230 237 241 247 234 233 254 245 242 240 237 240 246 253 252 251 251
257 261 248 258 264 258 254 249 247 244 246 255 265 288 243 256 242 225 212 220 237 220 232 246 232 230 228 229 237 241 237 223 245 246 243 247 250 247 248 253 256 263 261 259
262 259 255 248 245 257 260 259 260 251 252 261 268 236 266 272 246 240 222 220 234 221 221 252 239 225 221 222 238 260 249 248 251 251 248 253 252 253 244 250 248 252 261 262
261 263 264 251 240 240 245 249 250 253 255 264 268 278 264 259 261 236 236 222 235 224 223 243 246 229 238 249 263 257 259 247 248 256 253 258 246 245 246 252 257 258 252 257
256 260 262 264 257 241 235 239 246 250 256 256 265 268 274 254 254 236 235 231 230 229 235 231 230 233 238 246 263 264 265 266 257 253 252 246 247 249 258 260 256 257 253 257
249 252 256 257 256 255 247 233 237 243 247 250 257 262 273 271 237 233 232 236 233 235 231 239 247 237 235 244 245 247 251 252 259 258 246 249 247 250 248 236 251 251 251 254
255 253 253 255 255 256 252 247 245 237 240 247 250 256 259 261 252 225 222 228 234 239 247 244 235 238 231 240 273 259 252 253 259 260 232 245 248 251 237 235 243 246 252 264
258 256 257 257 256 256 257 256 249 251 244 237 242 242 245 248 252 249 223 225 230 246 253 255 251 246 243 259 260 273 268 260 250 255 216 234 243 243 246 240 246 246 257 268
263 262 261 260 262 263 257 253 252 245 245 245 242 244 239 237 242 248 246 226 226 231 247 258 264 266 271 268 260 264 268 257 250 243 231 225 236 239 241 240 248 268 249 256
262 259 257 256 256 257 259 251 253 250 245 245 246 246 245 242 239 240 247 237 233 240 242 244 256 266 267 266 273 270 265 261 255 241 234 228 234 236 234 234 244 260 259 267
261 257 258 256 256 256 257 257 246 248 246 238 242 244 244 246 243 238 241 245 240 238 246 245 246 262 265 270 272 272 268 266 263 256 242 225 221 229 228 234 239 250 266 273
263 261 257 255 255 255 255 255 251 242 243 240 234 237 240 243 246 242 238 243 242 242 238 236 241 256 262 263 275 277 271 266 266 235 208 207 213 218 225 232 248 263 268 273
258 257 255 254 254 253 250 250 248 246 235 236 233 234 237 242 244 240 238 239 241 242 242 244 248 248 256 260 276 276 266 278 238 225 223 204 200 208 226 248 258 263 270 274
254 254 256 255 253 250 250 250 248 245 235 230 228 230 233 236 239 239 233 228 233 241 241 240 247 244 245 261 271 280 279 277 227 207 190 195 196 218 238 249 256 263 270 273
253 251 251 252 250 250 250 248 247 248 243 232 227 223 225 219 227 227 225 219 214 221 234 234 242 238 240 254 272 277 276 265 244 227 199 188 230 235 242 250 257 267 276 279
257 252 249 247 248 251 243 247 246 244 243 235 224 221 222 220 224 221 216 218 213 216 228 237 239 244 244 250 267 273 270 273 272 232 239 247 244 246 249 255 268 274 273 274